Pierce City, MO

8:53 PM CST on February 13, 2016 (GMT -0600)
Monett

Weather History for KHFJ - February, 2014

Change the Weather History Date:

Saturday, February 1, 2014

  Actual Average (KJLN) Record (KJLN)
Temperature  
Mean Temperature 35 °F 36 °F  
Max Temperature 44 °F 47 °F 70 °F (1974)
Min Temperature 26 °F 26 °F -7 °F (1979)
Degree Days  
Heating Degree Days 30 29  
Month to date heating degree days 29  
Since 1 July heating degree days 2578  
Cooling Degree Days 0 0  
Month to date cooling degree days 0  
Year to date cooling degree days 0  
Moisture  
Dew Point 32 °F    
Average Humidity 100    
Maximum Humidity 100    
Minimum Humidity 93    
Precipitation  
Precipitation 0.05 in 0.07 in 2.37 in (1952)
Month to date precipitation 0.07  
Year to date precipitation 2.10  
Sea Level Pressure  
Sea Level Pressure 29.89 in    
Wind  
Wind Speed 8 mph (NNW)    
Max Wind Speed 16 mph    
Max Gust Speed 22 mph    
Visibility 2 miles    
Events Fog , Rain , Snow    
T = Trace of Precipitation, MM = Missing Value Source: NWS Daily Summary

Daily Weather History Graph

Daily Weather History Graph

Search for Another Location

Airport or City:

Trip Planner

Search our weather history database for the weather conditions in past years. The results will help you decide how hot, cold, wet, or windy it might be!

Date:

Astronomy

Feb. 01, 2014 Rise Set
Actual Time 7:18 AM CST 5:41 PM CST
Civil Twilight 6:51 AM CST 6:08 PM CST
Nautical Twilight 6:20 AM CST 6:39 PM CST
Astronomical Twilight 5:49 AM CST 7:10 PM CST
Moon 8:12 AM CST (2/1) 8:12 PM CST (2/1)
Length of Visible Light 11h 17m
Length of Day
10h 23m
Waxing Crescent, 5% of the Moon is Illuminated
Feb 1
Waxing Crescent
Feb 6
First Quarter
Feb 14
Full
Feb 22
Last Quarter
Mar 1
New

Hourly Weather History & Observations

Time (CST) Temp. Windchill Dew Point Humidity Pressure Visibility Wind Dir Wind Speed Gust Speed Precip Events Conditions
12:15 AM 41.0 °F 35.2 °F 41.0 °F 100% 29.78 in 4.0 mi ESE 9.2 mph - N/A   Overcast
12:35 AM 41.0 °F 34.7 °F 41.0 °F 100% 29.77 in 3.0 mi ESE 10.4 mph - N/A   Overcast
12:55 AM 41.0 °F 35.8 °F 41.0 °F 100% 29.76 in 2.5 mi ESE 8.1 mph - N/A   Overcast
1:15 AM 41.0 °F 34.7 °F 41.0 °F 100% 29.76 in 2.5 mi ESE 10.4 mph - N/A   Overcast
1:35 AM 41.0 °F 36.4 °F 41.0 °F 100% 29.75 in 3.0 mi ESE 6.9 mph - N/A   Overcast
1:55 AM 42.8 °F 37.0 °F 42.8 °F 100% 29.74 in 4.0 mi SE 10.4 mph - N/A   Overcast
2:15 AM 42.8 °F 40.1 °F 41.0 °F 93% 29.73 in 4.0 mi SSE 4.6 mph - N/A   Overcast
2:35 AM 42.8 °F - 41.0 °F 93% 29.73 in 4.0 mi Calm Calm - N/A   Overcast
2:55 AM 42.8 °F - 42.8 °F 100% 29.73 in 4.0 mi Calm Calm - N/A   Overcast
3:15 AM 42.8 °F - 42.8 °F 100% 29.73 in 3.0 mi Calm Calm - N/A   Overcast
3:35 AM 42.8 °F 40.1 °F 42.8 °F 100% 29.72 in 2.5 mi SSE 4.6 mph - N/A   Overcast
3:55 AM 42.8 °F 41.1 °F 42.8 °F 100% 29.73 in 2.5 mi South 3.5 mph - N/A   Drizzle
4:15 AM 44.6 °F 43.1 °F 44.6 °F 100% 29.73 in 3.0 mi SSW 3.5 mph - N/A   Drizzle
4:35 AM 41.0 °F 35.2 °F 41.0 °F 100% 29.74 in 0.8 mi NW 9.2 mph - N/A   Light Drizzle
4:55 AM 35.6 °F 32.8 °F 35.6 °F 100% 29.72 in 0.5 mi NNE 3.5 mph - N/A Fog Fog
5:15 AM 33.8 °F 24.8 °F 33.8 °F 100% 29.76 in 0.8 mi NW 12.7 mph 17.3 mph N/A   Light Drizzle
5:35 AM 32.0 °F 23.0 °F 32.0 °F 100% 29.78 in 1.0 mi NW 11.5 mph 17.3 mph N/A Rain Light Rain
5:55 AM 32.0 °F 24.2 °F 32.0 °F 100% 29.78 in 1.8 mi NW 9.2 mph - 0.01 in Rain Light Rain
6:15 AM 32.0 °F - 32.0 °F 100% 29.78 in 3.0 mi Calm Calm - 0.01 in Snow Light Snow
6:35 AM 32.0 °F - 32.0 °F 100% 29.79 in 4.0 mi Calm Calm - 0.01 in Rain Rain
6:55 AM 32.0 °F 28.7 °F 32.0 °F 100% 29.79 in 4.0 mi South 3.5 mph - 0.01 in   Drizzle
7:15 AM 32.0 °F 28.7 °F 32.0 °F 100% 29.79 in 3.0 mi South 3.5 mph - 0.02 in Rain Rain
7:35 AM 32.0 °F 28.7 °F 32.0 °F 100% 29.78 in 3.0 mi SSE 3.5 mph - 0.03 in Rain Rain
7:55 AM 32.0 °F 23.6 °F 32.0 °F 100% 29.81 in 5.0 mi WNW 10.4 mph - 0.03 in   Overcast
8:15 AM 32.0 °F 24.8 °F 32.0 °F 100% 29.83 in 2.5 mi WNW 8.1 mph - N/A   Overcast
8:35 AM 32.0 °F 24.2 °F 32.0 °F 100% 29.84 in 1.2 mi WNW 9.2 mph - N/A   Overcast
8:55 AM 32.0 °F 23.6 °F 32.0 °F 100% 29.85 in 0.5 mi NW 10.4 mph - N/A   Drizzle
9:15 AM 32.0 °F 25.6 °F 32.0 °F 100% 29.86 in 0.2 mi NW 6.9 mph - N/A Fog Light Freezing Fog
9:35 AM 32.0 °F 24.8 °F 32.0 °F 100% 29.87 in 0.2 mi NW 8.1 mph - N/A Fog Light Freezing Fog
9:55 AM 30.2 °F 21.3 °F 30.2 °F 100% 29.88 in 0.5 mi NW 10.4 mph - N/A Snow Light Snow
10:15 AM 30.2 °F 20.8 °F 30.2 °F 100% 29.89 in 0.2 mi NW 11.5 mph - N/A Fog Light Freezing Fog
10:35 AM 30.2 °F 22.6 °F 30.2 °F 100% 29.89 in 0.2 mi NNW 8.1 mph - N/A Fog Light Freezing Fog
10:55 AM 30.2 °F 23.4 °F 30.2 °F 100% 29.90 in 0.2 mi NW 6.9 mph - N/A Fog Light Freezing Fog
11:15 AM 30.2 °F 25.4 °F 30.2 °F 100% 29.90 in 0.2 mi NW 4.6 mph - N/A Fog Light Freezing Fog
11:35 AM 30.2 °F 25.4 °F 30.2 °F 100% 29.91 in 0.8 mi NW 4.6 mph - N/A   Overcast
11:55 AM 30.2 °F 23.4 °F 30.2 °F 100% 29.91 in 0.2 mi WNW 6.9 mph - N/A Fog Light Freezing Fog
12:15 PM 30.2 °F 24.3 °F 30.2 °F 100% 29.90 in 0.2 mi NW 5.8 mph - N/A Fog Light Freezing Fog
12:35 PM 30.2 °F 22.6 °F 30.2 °F 100% 29.90 in 0.2 mi NW 8.1 mph - N/A Fog Light Freezing Fog
12:55 PM 30.2 °F 22.6 °F 30.2 °F 100% 29.90 in 0.2 mi NW 8.1 mph - N/A Fog Light Freezing Fog
1:15 PM 30.2 °F 23.4 °F 30.2 °F 100% 29.88 in 0.5 mi NW 6.9 mph - N/A Fog Light Freezing Fog
1:35 PM 30.2 °F 25.4 °F 30.2 °F 100% 29.88 in 1.2 mi NNW 4.6 mph - N/A   Overcast
1:55 PM 30.2 °F 24.3 °F 30.2 °F 100% 29.88 in 0.5 mi NNW 5.8 mph - N/A Fog Light Freezing Fog
2:15 PM 30.2 °F 23.4 °F 30.2 °F 100% 29.88 in 0.2 mi NNW 6.9 mph - N/A Fog Light Freezing Fog
2:35 PM 30.2 °F 22.6 °F 30.2 °F 100% 29.90 in 0.2 mi NNW 8.1 mph - N/A Fog Light Freezing Fog
2:55 PM 30.2 °F 23.4 °F 30.2 °F 100% 29.90 in 0.2 mi NNW 6.9 mph - N/A Fog Light Freezing Fog
3:15 PM 30.2 °F 22.6 °F 30.2 °F 100% 29.92 in 1.2 mi NNW 8.1 mph - N/A   Overcast
3:35 PM 30.2 °F 21.9 °F 30.2 °F 100% 29.93 in 1.2 mi NNW 9.2 mph - N/A   Overcast
3:55 PM 30.2 °F 21.3 °F 30.2 °F 100% 29.93 in 0.5 mi NNW 10.4 mph - N/A Fog Light Freezing Fog
4:15 PM 30.2 °F 21.3 °F 30.2 °F 100% 29.94 in 0.2 mi NNW 10.4 mph - N/A Fog Light Freezing Fog
4:35 PM 28.4 °F 19.7 °F 28.4 °F 100% 29.95 in 0.2 mi North 9.2 mph - N/A Fog Light Freezing Fog
4:55 PM 28.4 °F 19.7 °F 28.4 °F 100% 29.95 in 0.2 mi North 9.2 mph - N/A Fog Light Freezing Fog
5:15 PM 28.4 °F 19.7 °F 28.4 °F 100% 29.95 in 0.2 mi North 9.2 mph - N/A Fog Light Freezing Fog
5:35 PM 28.4 °F 21.2 °F 28.4 °F 100% 29.95 in 0.8 mi North 6.9 mph - N/A   Overcast
5:55 PM 28.4 °F 22.2 °F 28.4 °F 100% 29.96 in 0.8 mi NNE 5.8 mph - N/A   Overcast
6:15 PM 28.4 °F 20.4 °F 28.4 °F 100% 29.97 in 0.8 mi North 8.1 mph - N/A   Overcast
6:35 PM 28.4 °F 21.2 °F 28.4 °F 100% 29.99 in 1.0 mi North 6.9 mph - N/A   Overcast
6:55 PM 28.4 °F 19.7 °F 28.4 °F 100% 30.00 in 2.5 mi North 9.2 mph - N/A   Overcast
7:15 PM 28.4 °F 20.4 °F 28.4 °F 100% 30.02 in 4.0 mi NNW 8.1 mph - N/A   Overcast
7:35 PM 28.4 °F 18.0 °F 28.4 °F 100% 30.03 in 3.0 mi NNW 12.7 mph - N/A   Overcast
7:55 PM 28.4 °F 17.5 °F 26.6 °F 93% 30.03 in 2.5 mi North 13.8 mph 17.3 mph N/A   Overcast
8:15 PM 26.6 °F 17.5 °F 26.6 °F 100% 30.04 in 4.0 mi North 9.2 mph 17.3 mph N/A   Overcast
8:35 PM 26.6 °F 16.2 °F 26.6 °F 100% 30.05 in 4.0 mi North 11.5 mph - N/A   Overcast
8:55 PM 26.6 °F 15.7 °F 26.6 °F 100% 30.05 in 5.0 mi North 12.7 mph - N/A   Overcast
9:15 PM 26.6 °F 16.8 °F 26.6 °F 100% 30.06 in 5.0 mi North 10.4 mph 18.4 mph N/A   Overcast
9:35 PM 26.6 °F 16.2 °F 26.6 °F 100% 30.07 in 5.0 mi NNW 11.5 mph - N/A   Overcast
9:55 PM 26.6 °F 16.8 °F 26.6 °F 100% 30.08 in 5.0 mi NNW 10.4 mph - N/A   Overcast
10:15 PM 26.6 °F 15.2 °F 26.6 °F 100% 30.08 in 5.0 mi North 13.8 mph 21.9 mph N/A   Overcast
10:35 PM 26.6 °F 15.2 °F 26.6 °F 100% 30.09 in 5.0 mi North 13.8 mph 18.4 mph N/A   Overcast
10:55 PM 26.6 °F 17.5 °F 26.6 °F 100% 30.10 in 5.0 mi North 9.2 mph - N/A   Overcast
11:15 PM 26.6 °F 16.8 °F 26.6 °F 100% 30.10 in 5.0 mi North 10.4 mph 19.6 mph N/A   Overcast
11:35 PM 26.6 °F 16.2 °F 26.6 °F 100% 30.12 in 4.0 mi NNW 11.5 mph 16.1 mph N/A   Overcast
11:55 PM 26.6 °F 14.3 °F 24.8 °F 93% 30.12 in 7.0 mi North 16.1 mph 20.7 mph N/A   Overcast